Volver al catálogo

COSMOS 2251 DEB

ActivoLEO
NORAD 33915·DEBRIS·🇷🇺 Russia

Lanzado Jun 16, 1993 desde Plesetsk Cosmodrome

Loading…

Próximos Pases (próximas 24 horas)

TLE

ActualizadoSource: Space-Track

Época: Sep 14, 2026, 10:10 UTC

1 33915U 93036DU  26257.42386120  .00000773  00000-0  25978-3 0  9991
2 33915  74.0400 248.5466 0107587 273.0458 240.4663 14.35715348917137

Sigue COSMOS 2251 DEB en tiempo real con AllMySat

Download on the App Store